Lid_Strength_Index
-0 -0 -0 -0 -1 -0 -0 -0 -0 0 0 -1 -0 -0 -0 -0 -0 1 3 1 4 8 7 5 6 8 8 8 12 10 9 9 10 13 13 14 15 13 14 13 13 14 16 16 15 17 20 8 8 12 10 8 8 8
-0 -0 -0 -0 -0 -0 -0 -0 0 -0 -0 0 -0 -1 -1 -1 -0 0 5 2 1 5 8 4 4 4 5 6 8 9 8 8 9 11 13 13 14 14 13 16 10 16 13 14 13 14 9 8 9 8 7 8 8 8
-0 -1 -1 -0 -0 0 -0 -0 -0 -0 0 0 0 -0 -0 -0 -1 -1 2 1 3 6 6 7 8 5 3 5 5 10 7 6 7 6 10 11 13 12 15 15 12 11 9 13 11 10 9 7 7 7 7 7 7 7
-1 -1 -1 -0 -0 0 -0 -0 0 0 1 0 0 0 0 0 -1 -1 2 1 3 5 11 10 4 5 4 4 3 6 5 4 5 6 10 12 13 9 13 12 12 11 9 11 12 9 8 7 7 6 6 7 7 8
-0 -0 0 -0 -0 -0 -0 0 0 0 1 1 1 1 2 1 -0 -0 1 1 2 7 9 9 6 4 3 3 3 4 4 5 7 9 11 12 10 11 13 12 13 9 11 12 13 8 9 8 6 5 6 7 7 9
0 0 -0 -0 -0 0 -0 0 1 1 1 1 1 1 0 2 1 3 7 3 2 2 8 10 5 5 4 4 4 4 4 6 8 11 11 10 8 11 14 15 9 7 7 7 9 6 7 6 5 5 6 7 8 8
0 0 0 -0 -1 -1 -0 0 1 1 1 1 1 0 0 1 3 5 6 3 2 3 8 10 10 6 4 5 7 7 6 7 8 12 12 11 10 9 14 14 9 7 6 6 6 6 8 7 8 6 5 6 7 8
0 0 -0 -1 -0 0 1 1 1 1 1 1 0 0 -0 0 1 4 3 1 1 5 7 12 11 11 6 11 12 8 10 10 10 11 10 11 9 10 13 10 7 6 6 6 6 6 7 6 7 7 7 8 9 10
0 -0 -0 -0 1 1 1 1 1 1 1 0 0 0 3 4 6 5 1 1 4 6 12 12 14 16 9 8 8 10 10 15 10 12 11 10 13 13 10 8 8 7 7 7 6 6 7 8 8 8 8 9 10 10
0 -0 0 0 1 1 1 1 1 1 1 0 3 6 10 6 1 2 5 9 10 9 9 12 11 13 10 8 9 10 9 13 13 12 10 13 13 8 7 6 6 6 6 5 8 8 9 9 9 9 9 10 9 10
0 -0 -0 0 1 1 1 1 1 0 1 5 9 9 5 1 5 8 12 11 10 12 11 10 11 11 7 14 11 11 13 12 14 13 12 13 13 10 7 7 6 5 5 6 6 7 7 8 10 10 10 10 10 10
-0 0 0 1 1 1 1 1 1 3 4 4 5 4 5 7 10 11 13 11 11 12 10 11 11 11 10 7 11 10 12 12 14 11 13 15 12 8 8 8 7 7 7 7 7 8 9 9 10 10 11 11 11 11
1 1 1 1 1 1 1 1 0 0 1 4 5 7 10 10 15 15 17 12 15 10 8 8 10 8 8 7 9 10 14 15 9 12 13 11 9 9 9 9 9 9 9 10 10 10 10 11 11 11 12 14 12 10
2 2 2 1 1 1 0 1 1 1 2 8 9 12 13 12 11 11 11 10 8 8 8 8 9 9 8 10 11 13 11 10 15 17 14 10 9 9 9 9 9 10 11 11 12 12 13 13 14 14 14 16 11 12
2 2 2 2 1 1 2 1 1 1 4 9 9 12 11 9 8 8 8 9 8 7 9 9 9 9 10 11 10 12 16 17 16 19 13 9 9 9 10 10 11 14 15 15 15 14 14 14 14 14 13 17 16 16
1 2 2 1 1 1 1 1 1 3 6 8 8 11 11 12 10 11 9 10 7 8 8 10 12 14 12 11 13 16 15 18 13 10 10 9 9 10 10 11 13 14 13 11 11 11 13 12 12 12 13 16 20 17
1 4 1 1 1 1 1 3 5 6 7 8 11 9 10 11 9 8 8 9 7 10 13 12 14 12 12 14 14 13 17 12 10 9 9 9 9 10 10 10 11 11 10 10 9 9 11 11 11 12 13 13 14 16
4 3 1 0 1 2 2 3 5 6 8 10 13 9 8 8 8 7 8 8 8 9 11 11 12 13 18 15 14 13 10 10 13 9 9 9 9 10 10 10 10 9 10 10 10 10 11 11 11 11 11 12 13 14
3 2 1 1 1 3 6 5 5 9 10 12 11 8 8 8 8 7 7 7 6 6 8 10 12 13 14 13 13 10 13 15 12 10 9 9 9 9 9 9 9 10 10 10 10 10 10 10 10 11 11 11 13 14
1 1 1 1 1 5 6 8 5 9 9 10 8 8 8 8 7 7 8 8 8 9 10 11 13 9 13 13 12 12 12 12 11 10 10 9 9 9 9 9 9 9 9 9 10 10 10 10 10 10 11 11 12 14
3 3 2 2 4 5 6 8 9 8 9 11 8 8 8 8 8 8 8 7 10 11 12 12 11 9 12 12 12 12 10 11 12 12 11 10 9 9 9 9 9 9 10 10 10 10 10 10 10 10 11 11 13 12
4 2 5 3 6 5 9 7 8 7 9 10 10 9 11 14 14 9 8 11 11 11 12 11 11 12 11 10 11 10 9 8 8 9 9 9 9 10 9 9 9 9 9 9 9 9 9 9 9 10 10 10 10 11
3 4 6 6 9 12 12 7 9 9 12 12 11 11 13 13 11 9 13 11 12 12 11 11 10 9 10 9 9 9 8 9 9 9 9 9 9 9 9 9 8 8 9 10 9 9 9 9 9 9 9 9 11 12
3 7 11 11 11 16 11 12 9 10 11 11 12 14 13 12 10 13 14 12 13 13 11 11 10 10 9 9 10 10 9 9 9 9 9 9 10 9 9 9 8 8 8 9 9 9 9 9 9 10 10 12 12 12
13 15 14 19 13 15 15 15 14 11 16 14 14 15 14 12 17 17 14 14 10 15 14 12 9 9 10 11 11 10 9 9 10 10 10 8 9 9 10 9 10 9 8 9 9 9 9 9 10 10 10 13 13 14
19 17 16 16 17 14 13 18 18 17 16 17 16 13 13 15 18 18 13 10 9 9 9 9 9 10 10 9 10 10 10 8 9 10 9 8 9 9 10 11 11 11 10 8 9 9 10 10 10 10 11 11 13 13
20 19 10 8 9 9 14 13 10 14 17 18 17 18 19 21 22 15 10 10 9 8 11 9 8 9 9 9 10 10 9 9 9 9 9 8 8 8 9 10 11 10 9 10 8 9 10 10 10 10 11 12 13 12
14 12 16 15 14 12 16 17 18 17 15 10 12 17 19 18 17 11 12 13 10 11 10 10 8 8 8 8 9 10 11 11 10 10 11 11 12 12 9 10 10 9 9 9 9 9 9 10 10 11 11 13 17 13
14 13 12 18 18 15 16 15 15 12 10 12 16 16 15 10 12 12 12 11 12 13 12 9 9 8 8 10 10 11 9 9 11 11 16 17 15 11 15 12 10 10 9 10 9 9 9 10 10 10 12 14 15 13
15 13 15 20 19 17 16 14 16 11 12 12 12 10 10 12 12 12 12 13 12 13 13 13 8 9 9 9 9 9 8 9 8 10 11 11 11 13 11 11 9 9 9 9 10 10 9 10 11 13 13 13 13 14
10 12 12 14 17 16 16 17 18 16 17 17 19 16 15 15 13 11 10 10 10 13 9 8 8 8 8 9 9 9 9 8 8 9 10 12 10 9 9 9 9 9 9 9 10 10 11 11 11 13 14 15 15 15
16 16 17 17 17 12 17 17 18 18 20 19 18 22 18 16 15 14 15 14 14 9 7 7 8 8 7 7 7 7 8 8 8 8 8 8 8 9 9 9 9 9 9 10 10 10 11 11 11 11 12 12 13 15
15 14 14 16 17 17 17 16 17 18 20 20 20 21 18 15 15 14 10 6 8 13 12 7 6 6 6 7 7 7 8 8 9 8 8 8 8 9 9 9 8 9 9 10 10 10 11 11 11 12 12 12 12 13